Weather History for Jamestown, NY

Change the Weather History Date:

Tuesday, June 25, 2013

  Actual Average Record
Temperature  
Mean Temperature 71 °F -  
Max Temperature 78 °F 76 °F 88 °F (1989)
Min Temperature 64 °F 49 °F 34 °F (1979)
Cooling Degree Days 6    
Growing Degree Days 21 (Base 50)    
Moisture  
Dew Point 63 °F    
Average Humidity 79    
Maximum Humidity 94    
Minimum Humidity 57    
Precipitation  
Precipitation 0.01 in - - ()
Sea Level Pressure  
Sea Level Pressure 29.98 in    
Wind  
Wind Speed 8 mph (WSW)    
Max Wind Speed 20 mph    
Max Gust Speed 30 mph    
Visibility 10 miles    
Events      
Averages and records for this station are not official NWS values.
T = Trace of Precipitation, MM = Missing Value Source: NWS Daily Summary

Daily Weather History Graph

Daily Weather History Graph

Search for Another Location

Airport:

Trip Planner

Search our weather history database for the weather conditions in past years. The results will help you decide how hot, cold, wet, or windy it might be!

Date:

Astronomy

Jun. 25, 2013 Rise Set
Actual Time 5:42 AM EDT 8:57 PM EDT
Civil Twilight 5:07 AM EDT 9:31 PM EDT
Nautical Twilight 4:22 AM EDT 10:16 PM EDT
Astronomical Twilight 3:28 AM EDT 11:10 PM EDT
Moon 10:37 PM EDT (6/25) 8:23 AM EDT (6/25)
Length of Visible Light 16h 24m
Length of Day
15h 15m
Waning Gibbous, 93% of the Moon is Illuminated
Jun 25
Waning Gibbous
Jun 30
Last Quarter
Jul 8
New
Jul 15
First Quarter
Jul 22
Full

Hourly Weather History & Observations

Time (EDT) Temp. Dew Point Humidity Pressure Visibility Wind Dir Wind Speed Gust Speed Precip Events Conditions
12:15 AM 68.0 °F 64.4 °F 88% 30.05 in 10.0 mi SSW 4.6 mph - N/A   Clear
12:35 AM 69.8 °F 64.4 °F 83% 30.05 in 10.0 mi SSW 4.6 mph - N/A   Clear
12:55 AM 69.8 °F 64.4 °F 83% 30.05 in 10.0 mi SW 5.8 mph - N/A   Clear
1:15 AM 68.0 °F 62.6 °F 83% 30.05 in 10.0 mi SW 5.8 mph - N/A   Clear
1:35 AM 66.2 °F 62.6 °F 88% 30.05 in 10.0 mi WSW 5.8 mph - N/A   Clear
1:55 AM 68.0 °F 62.6 °F 83% 30.04 in 10.0 mi SW 5.8 mph - N/A   Clear
2:15 AM 69.8 °F 62.6 °F 78% 30.03 in 10.0 mi SSW 4.6 mph - N/A   Clear
2:35 AM 68.0 °F 62.6 °F 83% 30.02 in 10.0 mi SSW 5.8 mph - N/A   Clear
2:55 AM 68.0 °F 62.6 °F 83% 30.02 in 10.0 mi SSW 5.8 mph - N/A   Clear
3:15 AM 68.0 °F 62.6 °F 83% 30.01 in 10.0 mi SSW 4.6 mph - N/A   Clear
3:35 AM 68.0 °F 62.6 °F 83% 30.01 in 10.0 mi SSW 4.6 mph - N/A   Clear
3:55 AM 68.0 °F 62.6 °F 83% 30.00 in 10.0 mi SSW 4.6 mph - N/A   Clear
4:15 AM 68.0 °F 62.6 °F 83% 29.99 in 10.0 mi SW 8.1 mph - N/A   Clear
4:35 AM 68.0 °F 62.6 °F 83% 29.99 in 10.0 mi SW 6.9 mph - N/A   Clear
4:55 AM 68.0 °F 62.6 °F 83% 29.99 in 10.0 mi SSW 6.9 mph - N/A   Clear
5:15 AM 68.0 °F 62.6 °F 83% 29.99 in 10.0 mi SSW 5.8 mph - N/A   Clear
5:35 AM 66.2 °F 62.6 °F 88% 30.00 in 10.0 mi SSW 6.9 mph - N/A   Clear
5:55 AM 68.0 °F 62.6 °F 83% 30.00 in 9.0 mi SSW 6.9 mph - N/A   Clear
6:15 AM 68.0 °F 62.6 °F 83% 30.00 in 8.0 mi SSW 5.8 mph - N/A   Partly Cloudy
6:35 AM 68.0 °F 64.4 °F 88% 29.99 in 8.0 mi SSW 5.8 mph - N/A   Clear
6:55 AM 68.0 °F 64.4 °F 88% 29.99 in 8.0 mi SW 6.9 mph - N/A   Clear
7:15 AM 69.8 °F 64.4 °F 83% 30.00 in 8.0 mi SW 6.9 mph - N/A   Clear
7:35 AM 69.8 °F 64.4 °F 83% 30.01 in 8.0 mi SW 9.2 mph - N/A   Mostly Cloudy
7:55 AM 69.8 °F 64.4 °F 83% 30.01 in 7.0 mi SW 10.4 mph 16.1 mph N/A   Mostly Cloudy
8:15 AM 69.8 °F 64.4 °F 83% 30.00 in 9.0 mi SW 11.5 mph 18.4 mph N/A   Partly Cloudy
8:35 AM 71.6 °F 64.4 °F 78% 30.00 in 10.0 mi WSW 13.8 mph - N/A   Mostly Cloudy
8:55 AM 71.6 °F 62.6 °F 73% 30.01 in 10.0 mi WSW 19.6 mph 25.3 mph N/A   Overcast
9:15 AM 71.6 °F 62.6 °F 73% 30.01 in 10.0 mi WSW 13.8 mph 19.6 mph N/A   Overcast
9:35 AM 71.6 °F 62.6 °F 73% 30.02 in 10.0 mi West 18.4 mph 24.2 mph N/A   Overcast
9:55 AM 71.6 °F 62.6 °F 73% 30.02 in 10.0 mi West 17.3 mph 29.9 mph N/A   Overcast
10:15 AM 71.6 °F 62.6 °F 73% 30.02 in 10.0 mi West 16.1 mph 23.0 mph N/A   Overcast
10:35 AM 71.6 °F 62.6 °F 73% 30.02 in 10.0 mi West 12.7 mph 23.0 mph N/A   Overcast
10:55 AM 71.6 °F 64.4 °F 78% 30.02 in 10.0 mi West 12.7 mph 17.3 mph N/A   Overcast
11:15 AM 71.6 °F 64.4 °F 78% 30.02 in 10.0 mi West 16.1 mph 25.3 mph N/A   Overcast
11:35 AM 73.4 °F 64.4 °F 73% 30.01 in 10.0 mi West 17.3 mph 23.0 mph N/A   Overcast
11:55 AM 73.4 °F 64.4 °F 73% 30.01 in 10.0 mi West 15.0 mph 23.0 mph N/A   Mostly Cloudy
12:15 PM 73.4 °F 64.4 °F 73% 30.00 in 10.0 mi WSW 13.8 mph - N/A   Mostly Cloudy
12:35 PM 73.4 °F 64.4 °F 73% 29.99 in 10.0 mi West 12.7 mph 18.4 mph N/A   Mostly Cloudy
12:55 PM 75.2 °F 66.2 °F 73% 30.00 in 10.0 mi WSW 13.8 mph 18.4 mph N/A   Mostly Cloudy
1:15 PM 75.2 °F 66.2 °F 73% 29.99 in 10.0 mi West 13.8 mph 19.6 mph N/A   Partly Cloudy
1:35 PM 77.0 °F 66.2 °F 69% 29.99 in 10.0 mi West 15.0 mph - N/A   Mostly Cloudy
1:55 PM 77.0 °F 64.4 °F 65% 29.98 in 10.0 mi West 10.4 mph - N/A   Mostly Cloudy
2:15 PM 77.0 °F 64.4 °F 65% 29.98 in 10.0 mi West 15.0 mph - N/A   Partly Cloudy
2:35 PM 75.2 °F 64.4 °F 69% 29.98 in 10.0 mi WSW 12.7 mph - N/A   Mostly Cloudy
2:55 PM 75.2 °F 62.6 °F 65% 29.99 in 10.0 mi West 15.0 mph - N/A   Scattered Clouds
3:15 PM 77.0 °F 62.6 °F 61% 29.99 in 10.0 mi West 15.0 mph - N/A   Scattered Clouds
3:35 PM 78.8 °F 64.4 °F 61% 29.98 in 10.0 mi West 11.5 mph 17.3 mph N/A   Scattered Clouds
3:55 PM 78.8 °F 64.4 °F 61% 29.97 in 10.0 mi West 9.2 mph - N/A   Clear
4:15 PM 78.8 °F 64.4 °F 61% 29.95 in 10.0 mi West 11.5 mph - N/A   Clear
4:35 PM 78.8 °F 64.4 °F 61% 29.95 in 10.0 mi West 10.4 mph 18.4 mph N/A   Clear
4:55 PM 78.8 °F 62.6 °F 57% 29.94 in 10.0 mi West 11.5 mph - N/A   Partly Cloudy
5:15 PM 78.8 °F 62.6 °F 57% 29.93 in 10.0 mi WNW 12.7 mph - N/A   Scattered Clouds
5:35 PM 75.2 °F 64.4 °F 69% 29.93 in 10.0 mi NW 11.5 mph - N/A   Mostly Cloudy
5:55 PM 73.4 °F 64.4 °F 73% 29.92 in 10.0 mi NW 8.1 mph - N/A   Mostly Cloudy
6:15 PM 71.6 °F 64.4 °F 78% 29.90 in 10.0 mi West 3.5 mph - N/A   Clear
6:35 PM 71.6 °F 64.4 °F 78% 29.92 in 10.0 mi WSW 5.8 mph - N/A   Scattered Clouds
6:55 PM 69.8 °F 64.4 °F 83% 29.91 in 10.0 mi WSW 10.4 mph - N/A   Overcast
7:15 PM 69.8 °F 64.4 °F 83% 29.93 in 7.0 mi WSW 11.5 mph - N/A   Overcast
7:35 PM 68.0 °F 64.4 °F 88% 29.93 in 7.0 mi SW 11.5 mph - 0.01 in   Mostly Cloudy
7:55 PM 68.0 °F 64.4 °F 88% 29.92 in 7.0 mi SW 10.4 mph - 0.01 in   Clear
8:15 PM 66.2 °F 64.4 °F 94% 29.93 in 9.0 mi SW 11.5 mph - N/A   Clear
8:35 PM 66.2 °F 62.6 °F 88% 29.93 in 10.0 mi SW 10.4 mph - N/A   Partly Cloudy
8:55 PM 66.2 °F 60.8 °F 83% 29.92 in 10.0 mi SW 10.4 mph - N/A   Partly Cloudy
9:15 PM 64.4 °F 60.8 °F 88% 29.93 in 10.0 mi SW 9.2 mph - N/A   Clear
9:35 PM 64.4 °F 60.8 °F 88% 29.93 in 10.0 mi SSW 5.8 mph - N/A   Clear
9:55 PM 64.4 °F 60.8 °F 88% 29.93 in 10.0 mi SSW 6.9 mph - N/A   Clear
10:15 PM 64.4 °F 60.8 °F 88% 29.95 in 10.0 mi SSW 8.1 mph - N/A   Partly Cloudy
10:35 PM 64.4 °F 60.8 °F 88% 29.96 in 10.0 mi SSW 6.9 mph - N/A   Scattered Clouds
10:55 PM 64.4 °F 60.8 °F 88% 29.95 in 10.0 mi SSW 6.9 mph - N/A   Mostly Cloudy
11:15 PM 64.4 °F 60.8 °F 88% 29.93 in 10.0 mi SSW 6.9 mph - N/A   Overcast
11:35 PM 64.4 °F 60.8 °F 88% 29.93 in 10.0 mi SSW 8.1 mph - N/A   Mostly Cloudy
11:55 PM 64.4 °F 60.8 °F 88% 29.93 in 10.0 mi SW 6.9 mph - N/A   Mostly Cloudy